星链-35532(STARLINK-35532)

导读

STARLINK-35532是美国SpaceX星链互联网星座中的一颗卫星,于2025年10月19日发射升空,星链项目旨在为全球提供覆盖广泛的高速卫星互联网服务,该卫星加入后将进一步完善星链星座的组网布局,提升星座服务的覆盖容量与稳定性,助力推进全球网络覆盖,尤其为偏远地区等网络覆盖薄弱区域提供网络接入支持。

基本信息
目录编号:
66091
目录名称:
STARLINK-35532
国际标识:
2025-236F
轨道中心:
EARTH
卫星名称:
星链-35532
卫星全名:
星链-35532(STARLINK-35532)
卫星状态:
在轨 (已飞行237 天)
发射日期:
2025-10-19 UTC
国别 :
美国 (US)
星等 :
--
轨道信息
数据来源 国际轨道数据
星历时间: 2026-06-13T05:07:33+0800
15小时前
查看轨道信息
半长轴: 6853.209km
偏心率: 0.0001063
轨道倾角: 53.160°
近地点辐角 105.847°
升交点赤经 21.370°
平近点角 254.265°
近地点: 474.343km
远地点: 475.801km
周期: 94.102分钟
每日圈数: 15.302481
详细信息
固有亮度:
5
最大亮度:
2.5
卫星平台:
Starlink V1.0
覆盖范围:
全球
运营商:
太空探索技术公司
运营商所在国:
美国
制造商(研发单位):
太空探索技术公司
制造商所在国:
美国
使用方式:
暂无
卫星简介
Starlink 计划是 SpaceX 推出的全球卫星互联网项目,通过发射低轨道卫星,为全球尤其是偏远地区提供高速、低延迟的互联网服务。自 2019 年起,Starlink 已部署数千颗卫星,旨在缩小全球数字鸿沟,推动互联网普及。该项目还为军事、航空等行业提供通信支持,带来广泛经济效益。
2D轨道图
3D轨道图
轨道高度分析图
轨道倾角分析图
轨道综合分析图
查看轨道综合分析图